[[{"header":{"parameterUnit":"m.s-1","parameterCategory":1,"la1":30.2992,"la2":30.254,"lo1":-89.0895,"lo2":-89.0443,"dy":0.0025,"dx":0.0025,"nx":19,"ny":19,"refTime":"2026-03-31T21:00:00:Z","depth":0,"parameterNumber":2,"parameterNumberName":"U-component_of_WINDS"},"data":[0,0,0,-2.8658,-2.866,-2.8756,-2.8756,-2.888,-2.8881,0,0,0,0,0,0,0,0,0,0,0,-2.863,-2.863,-2.8657,-2.866,-2.8756,-2.8756,-2.888,-2.8881,0,0,0,0,0,0,0,0,0,0,0,-2.8629,-2.863,-2.8631,-2.866,-2.8756,-2.8756,-2.888,-2.8807,0,0,0,0,0,0,0,0,0,0,-2.8713,-2.8688,-2.863,-2.8631,-2.8661,-2.8756,-2.8756,-2.8803,-2.8811,-2.8837,0,-2.886,0,-2.8873,-2.8889,-2.889,0,0,0,-2.8659,-2.8681,-2.8707,-2.8631,-2.8662,-2.8756,-2.8712,-2.8808,-2.8817,-2.8847,-2.8862,-2.8866,-2.8875,-2.889,-2.8891,-2.9041,-2.9042,0,0,-2.8654,-2.8647,-2.87,-2.8713,-2.8698,-2.8709,-2.8715,-2.8813,-2.8828,-2.8862,-2.8869,-2.8877,-2.8891,-2.8892,-2.9041,-2.9041,0,0,0,-2.8639,-2.8643,-2.8667,-2.8708,-2.8725,-2.8712,-2.8719,-2.8823,-2.8832,-2.887,-2.8878,-2.8892,-2.8893,-2.904,-2.9041,-2.9069,0,0,0,-2.8636,-2.8635,-2.8664,-2.8661,-2.8723,-2.8775,-2.8727,-2.8825,-2.8836,-2.8877,-2.8892,-2.8895,-2.9039,-2.904,-2.9066,-2.9083,0,0,0,-2.8623,-2.8633,-2.8647,-2.866,-2.8702,-2.8774,-2.8788,-2.8827,-2.8841,-2.889,-2.8895,-2.9038,-2.904,-2.9064,-2.9079,-2.9119,0,0,0,-2.8607,-2.8671,-2.8648,-2.8722,-2.8701,-2.8792,-2.8787,-2.8855,-2.8901,-2.8892,-2.9039,-2.9041,-2.9064,-2.9077,-2.9117,-2.915,-2.9164,0,0,-2.8683,-2.868,-2.8724,-2.8706,-2.8799,-2.8777,-2.8875,-2.8923,-2.8934,-2.9005,-2.9009,-2.9067,-2.9079,-2.9119,-2.9248,-2.9259,0,0,0,-2.8746,-2.8777,-2.8804,-2.8847,-2.8886,-2.8921,-2.8955,-2.8973,-2.9034,-2.8969,-2.9094,-2.9101,-2.9125,-2.9141,-2.915,-2.9171,-2.9049,-2.9048,-2.9048,-2.8841,-2.8853,-2.8927,-2.8951,-2.8993,-2.9029,-2.9064,-2.9095,-2.9094,-2.9124,-2.9144,-2.9221,-2.924,-2.9247,-2.9268,-2.9164,-2.9164,-2.9165,-2.9165,-2.8952,-2.8998,-2.8997,-2.9068,-2.9081,-2.9141,-2.9179,-2.9176,-2.9234,-2.9206,-2.9228,-2.9194,-2.9258,-2.9277,-2.9167,-2.9167,-2.9166,-2.9166,-2.9166,-2.9014,-2.9038,-2.906,-2.9125,-2.9174,-2.9197,-2.9252,-2.9262,-2.9272,-2.9293,-2.9315,-2.9314,-2.9313,-2.9303,-2.9304,-2.9304,-2.9304,-2.9304,-2.9305,-2.9068,-2.9092,-2.9138,-2.9187,-2.9216,-2.9257,-2.9295,-2.9325,-2.936,-2.9363,-2.9363,-2.9358,-2.9263,-2.9238,-2.9309,-2.9308,-2.9307,-2.9307,-2.9307,-2.9172,-2.915,-2.9221,-2.9251,-2.9309,-2.9357,-2.937,-2.943,-2.9456,-2.9483,-2.9475,-2.9404,-2.94,-2.9393,-2.9372,-2.9473,-2.9473,-2.9473,-2.9473,-2.9222,-2.9222,-2.9297,-2.9344,-2.9392,-2.9411,-2.949,-2.9522,-2.9551,-2.9568,-2.9556,-2.953,-2.9522,-2.9523,-2.9513,-2.9493,-2.9623,-2.9623,-2.9623,-2.9286,-2.9292,-2.9356,-2.9385,-2.9432,-2.9472,-2.9547,-2.9601,-2.963,-2.9629,-2.9581,-2.9575,-2.9533,-2.9519,-2.9513,-2.9497,-2.9461,0,0]},{"header":{"parameterUnit":"m.s-1","parameterCategory":1,"la1":30.2992,"la2":30.254,"lo1":-89.0895,"lo2":-89.0443,"dy":0.0025,"dx":0.0025,"nx":19,"ny":19,"refTime":"2026-03-31T21:00:00:Z","depth":0,"parameterNumber":3,"parameterNumberName":"V-component_of_WINDS"},"data":[0,0,0,2.1033,2.1034,2.1089,2.109,2.1161,2.1161,0,0,0,0,0,0,0,0,0,0,0,2.1017,2.1017,2.1033,2.1034,2.1089,2.109,2.1161,2.1161,0,0,0,0,0,0,0,0,0,0,0,2.1016,2.1017,2.1017,2.1035,2.1089,2.109,2.116,2.1119,0,0,0,0,0,0,0,0,0,0,2.1065,2.1049,2.1017,2.1018,2.1035,2.1089,2.109,2.1117,2.1121,2.1136,0,2.1148,0,2.1156,2.1166,2.1166,0,0,0,2.1034,2.1046,2.1061,2.1018,2.1035,2.1089,2.1065,2.1119,2.1124,2.1142,2.1149,2.1152,2.1157,2.1167,2.1167,2.1253,2.1253,0,0,2.1031,2.1026,2.1057,2.1064,2.1055,2.1063,2.1066,2.1122,2.113,2.115,2.1154,2.1159,2.1167,2.1168,2.1253,2.1253,0,0,0,2.1023,2.1024,2.1038,2.1061,2.1071,2.1064,2.1068,2.1128,2.1133,2.1155,2.1159,2.1167,2.1168,2.1252,2.1253,2.1269,0,0,0,2.1021,2.1019,2.1037,2.1034,2.107,2.11,2.1072,2.1129,2.1135,2.1159,2.1167,2.1169,2.1252,2.1253,2.1268,2.1278,0,0,0,2.1013,2.1018,2.1026,2.1033,2.1057,2.1099,2.1107,2.113,2.1138,2.1166,2.1169,2.1251,2.1252,2.1267,2.1276,2.1301,0,0,0,2.1003,2.1038,2.1026,2.1067,2.1057,2.1109,2.1107,2.1146,2.1172,2.1168,2.1252,2.1253,2.1266,2.1274,2.1299,2.1322,2.133,0,0,2.1044,2.1042,2.1067,2.1058,2.1112,2.1101,2.1157,2.1184,2.1191,2.1232,2.1234,2.1268,2.1275,2.1301,2.1378,2.1385,0,0,0,2.1078,2.1096,2.1111,2.1137,2.116,2.1182,2.1202,2.1213,2.1249,2.1211,2.1284,2.1288,2.1303,2.1314,2.132,2.1334,2.1257,2.1257,2.1257,2.1128,2.1137,2.1179,2.1196,2.1221,2.1243,2.1265,2.1283,2.1283,2.13,2.1312,2.1358,2.1371,2.1375,2.139,2.1324,2.1324,2.1324,2.1324,2.119,2.1218,2.122,2.1262,2.1271,2.1307,2.1331,2.133,2.1365,2.1349,2.1362,2.1345,2.1383,2.1396,2.1326,2.1325,2.1325,2.1325,2.1325,2.1225,2.124,2.1254,2.1294,2.1324,2.134,2.1375,2.1381,2.1388,2.1401,2.1417,2.1417,2.1419,2.1408,2.1408,2.1409,2.1409,2.1409,2.1409,2.1255,2.1271,2.1299,2.133,2.1349,2.1375,2.1401,2.142,2.1443,2.1445,2.1446,2.1446,2.1384,2.137,2.1411,2.1411,2.1411,2.141,2.141,2.1316,2.1305,2.1349,2.1368,2.1407,2.1438,2.1447,2.1487,2.1504,2.1521,2.1519,2.1472,2.1471,2.1466,2.1454,2.1516,2.1516,2.1516,2.1516,2.1347,2.1347,2.1396,2.1428,2.1459,2.1473,2.1525,2.1547,2.1567,2.1578,2.1571,2.1555,2.155,2.1552,2.1545,2.1535,2.1615,2.1615,2.1615,2.1386,2.1391,2.1433,2.1453,2.1485,2.1512,2.1563,2.16,2.162,2.1619,2.1588,2.1584,2.1559,2.155,2.1548,2.1538,2.1518,0,0]}]]